Etusivu
METAR-TAF:

METAR-TAF

Lentoasemat :

Anoka County-Blaine Airport (Janes Field)

Minneapolis / Blaine, Minnesota, Yhdysvallat

Leveyspiiri: 45-09N, Pituuspiiri: 093-13W, korkeus merenpinnasta: 278 m

Tämänhetkinen sää

Tämä raportti tehtiin 44 minuuttia sitten, kello 01.45 UTC
Tuuli 5 kn kaakosta
Lämpötila 2°C
Kosteus 80%
Ilmanpaine 1005 hPa
Näkyvyys: 16.1 km
Pilvistä 1600 ft:n korkeudessa

METAR: KANE 190145Z 14005KT 10SM OVC016 02/M01 A2968

Aika: 20:29 (02:29 UTC)


TAF: puuttuu

Säähavainnot ja -ennusteet yli 4000 lentoasemalta (METAR- ja TAF-raportit).

Käytössä olevat sääasemat on merkitty karttaan keltaisilla ja punaisilla pisteillä.

Aseta hiiri pisteen päälle nähdäksesi sääaseman nimen.

Klikkaa sitten nähdäksesi säähavainnot ja -ennusteet.

Kartan vaihtaminen: klikkaa mustalla rastilla varustettuja vihreitä pisteitä, niin voit zoomata sisään; viivalla varustettua vihreää pistettä, niin voit zoomata ulos tai vihreitä nuolia, niin pääset viereisille kartoille.


METAR-TAF: